Regional Weather Roundup
Issued by NWS Jackson, KY

Home | Current Version | Previous Version | Text Only | Print | Product List | Glossary Off
Versions: 1 2 3 4 5 6 7 8 9 10 11 12 13 14 15 16 17 18 19 20 21 22 23 24 25 26 27 28 29 30 31 32 33 34 35 36 37 38 39 40 41 42 43 44 45 46 47 48 49 50

655
ASUS43 KJKL 211910
RWRJKL

EAST KENTUCKY HOURLY WEATHER ROUNDUP
NATIONAL WEATHER SERVICE JACKSON KY
300 PM EDT MON AUG 21 2017

NOTE: "FAIR" INDICATES FEW OR NO CLOUDS BELOW 12,000 FEET WITH
NO SIGNIFICANT WEATHER AND/OR OBSTRUCTIONS TO VISIBILITY.

* THESE REPORTS ARE NOT UNDER NWS QUALITY CONTROL AND MAY NOT
  REPORT WEATHER SUCH AS PRECIPITATION AND FOG.

KYZ079-080-083-085-087-088-110-112-115-119-120-212000
...EASTERN KENTUCKY...

CITY           SKY/WX    TMP DP  RH WIND       PRES   REMARKS
JACKSON        SUNNY     81  69  67 CALM      30.21F
LONDON         MOSUNNY   84  68  58 CALM      30.19F
SOMERSET*      MOSUNNY   81  70  69 CALM      30.19S
MONTICELLO*    MOSUNNY   79  75  87 VRB3      30.20S
WILLIAMSBURG*  PTCLDY    82  70  65 CALM      30.19F
MIDDLESBORO*   CLOUDY    81  71  71 W3        30.21S
HARLAN APT*    CLOUDY    79  70  73 CALM      30.22S
PIKE CO APT*     N/A     81  70  68 CALM      30.21F
BIG SANDY APT* CLEAR     80  68  67 CALM      30.20F
MOREHEAD APT*  CLEAR     82  70  65 CALM      30.19F
$$

KYZ035-036-041-042-044-050-067-078-099-212000
...CENTRAL KENTUCKY...

CITY           SKY/WX    TMP DP  RH WIND       PRES   REMARKS
MT STERLING*   CLOUDY    82  72  69 S3        30.18F
FLEMING/MASON* SUNNY     84  68  58 S3        30.17F
DANVILLE*      MOSUNNY   82  70  65 S3        30.18F
LEXINGTON      MOSUNNY   84  69  60 SW3       30.16F
FRANKFORT      MOSUNNY   84  69  60 SW3       30.13F
LOUISVILLE     MOSUNNY   89  69  51 W7        30.11F HX  93
LEBANON*         N/A     84  66  54 CALM      30.15F
GLASGOW*       SUNNY     82  71  67 CALM      30.15F
BOWLING GREEN  SUNNY     87  68  52 W6        30.13F HX  90
$$

KYZ091>093-OHZ055-061-077-WVZ005-015-034-035-042-212000
...SOUTHERN OHIO/WEST VIRGINIA...

CITY           SKY/WX    TMP DP  RH WIND       PRES   REMARKS
COVINGTON      MOSUNNY   84  72  67 S5        30.14F
COLUMBUS       PTSUNNY   86  69  56 SW12      30.12F HX  90
DAYTON         CLOUDY    84  68  58 SW8       30.13F
WILMINGTON     MOSUNNY   82  73  74 S6        30.14F
HUNTINGTON     SUNNY     84  67  56 SE5       30.16F
CHARLESTON     MOSUNNY   85  66  53 S6        30.18F
PINEVILLE*     SUNNY     76  70  82 MISG      30.28F
BECKLEY        PTSUNNY   80  63  55 NE3       30.28F
BLUEFIELD      SUNNY     77  61  57 CALM      30.30F
LOGAN CO APT*    N/A     82  70  65 CALM      30.22F
$$

VAZ002-007-008-TNZ017-027-036-066-071-212000
...SOUTHWEST VIRGINIA/EAST TENNESSEE...

CITY           SKY/WX    TMP DP  RH WIND       PRES   REMARKS
WISE*          SUNNY     79  64  61 S6        30.30F
JONESVILLE*      N/A     82  72  69 CALM      30.23S
ABINGDON*      SUNNY     81  71  70 CALM      30.26F
BRISTOL        MOSUNNY   81  70  69 CALM      30.22F
MORRISTOWN*    CLEAR     84  66  54 NW3       30.19F
SEVIERVILLE*   CLEAR     84  64  51 N5        30.17F
KNOXVILLE      MOSUNNY   85  69  58 N5        30.17F
LAFOLLETTE*    CLEAR     81  72  74 CALM      30.22F
OAK RIDGE      MOSUNNY   85  67  54 CALM      30.19F
CROSSVILLE     PTSUNNY   78  68  71 CALM      30.23F
NASHVILLE      MOSUNNY   88  69  53 W3        30.14F HX  92
$$

...KEY TO REMARKS...
VSB - VISIBILITY IN MILES
WCI - WIND CHILL INDEX
HX  - HEAT INDEX

$$




USA.gov is the U.S. government's official web portal to all federal, state and local government web resources and services.